Time,TemperatureF,DewpointF,PressureIn,WindDirection,WindDirectionDegrees,WindSpeedMPH,WindSpeedGustMPH,Humidity,HourlyPrecipIn,Conditions,Clouds,dailyrainin,SoftwareType,DateUTC
2014-03-04 00:13:00,9.0,-99.9,-100.00,NE,42,2.0,-999.0,-999,-99.99,,,-99.99,,2014-03-04 05:13:00,
2014-03-04 00:22:00,9.0,-99.9,-100.00,NE,42,2.0,-999.0,-999,-99.99,,,-99.99,,2014-03-04 05:22:00,
2014-03-04 00:30:00,10.0,-99.9,-100.00,North,358,1.0,-999.0,-999,-99.99,,,-99.99,,2014-03-04 05:30:00,
2014-03-04 01:12:00,10.0,-99.9,-100.00,North,358,1.0,-999.0,-999,-99.99,,,-99.99,,2014-03-04 06:12:00,
2014-03-04 01:22:00,10.0,-99.9,-100.00,North,358,1.0,-999.0,-999,-99.99,,,-99.99,,2014-03-04 06:22:00,
2014-03-04 01:30:00,7.0,-99.9,-100.00,NE,36,2.0,-999.0,-999,-99.99,,,-99.99,,2014-03-04 06:30:00,
2014-03-04 02:11:00,7.0,-99.9,-100.00,NE,36,2.0,-999.0,-999,-99.99,,,-99.99,,2014-03-04 07:11:00,
2014-03-04 02:22:00,7.0,-99.9,-100.00,NE,36,2.0,-999.0,-999,-99.99,,,-99.99,,2014-03-04 07:22:00,
2014-03-04 02:30:00,5.0,-99.9,-100.00,NE,49,1.0,-999.0,-999,-99.99,,,-99.99,,2014-03-04 07:30:00,
2014-03-04 03:11:00,5.0,-99.9,-100.00,NE,49,1.0,-999.0,-999,-99.99,,,-99.99,,2014-03-04 08:11:00,
2014-03-04 03:22:00,5.0,-99.9,-100.00,NE,49,1.0,-999.0,-999,-99.99,,,-99.99,,2014-03-04 08:22:00,
2014-03-04 03:30:00,5.0,-99.9,-100.00,NE,38,2.0,-999.0,-999,-99.99,,,-99.99,,2014-03-04 08:30:00,
2014-03-04 04:12:00,5.0,-99.9,-100.00,NE,38,2.0,-999.0,-999,-99.99,,,-99.99,,2014-03-04 09:12:00,
2014-03-04 04:22:00,5.0,-99.9,-100.00,NE,38,2.0,-999.0,-999,-99.99,,,-99.99,,2014-03-04 09:22:00,
2014-03-04 04:30:00,4.0,-99.9,-100.00,East,81,1.0,-999.0,-999,-99.99,,,-99.99,,2014-03-04 09:30:00,
2014-03-04 05:13:00,4.0,-99.9,-100.00,East,81,1.0,-999.0,-999,-99.99,,,-99.99,,2014-03-04 10:13:00,
2014-03-04 05:23:00,4.0,-99.9,-100.00,East,81,1.0,-999.0,-999,-99.99,,,-99.99,,2014-03-04 10:23:00,
2014-03-04 05:30:00,2.0,-99.9,-100.00,ENE,60,2.0,-999.0,-999,-99.99,,,-99.99,,2014-03-04 10:30:00,
2014-03-04 05:53:00,2.0,-99.9,-100.00,ENE,60,2.0,-999.0,-999,-99.99,,,-99.99,,2014-03-04 10:53:00,
2014-03-04 06:03:00,2.0,-99.9,-100.00,ENE,60,2.0,-999.0,-999,-99.99,,,-99.99,,2014-03-04 11:03:00,
2014-03-04 06:12:00,2.0,-99.9,-100.00,ENE,60,2.0,-999.0,-999,-99.99,,,-99.99,,2014-03-04 11:12:00,
2014-03-04 06:22:00,2.0,-99.9,-100.00,ENE,60,2.0,-999.0,-999,-99.99,,,-99.99,,2014-03-04 11:22:00,
2014-03-04 06:30:00,1.0,-99.9,-100.00,ENE,62,3.0,-999.0,-999,-99.99,,,-99.99,,2014-03-04 11:30:00,
2014-03-04 07:12:00,1.0,-99.9,-100.00,ENE,62,3.0,-999.0,-999,-99.99,,,-99.99,,2014-03-04 12:12:00,
2014-03-04 07:22:00,1.0,-99.9,-100.00,ENE,62,3.0,-999.0,-999,-99.99,,,-99.99,,2014-03-04 12:22:00,
2014-03-04 07:30:00,1.0,-99.9,-100.00,NE,54,3.0,-999.0,-999,-99.99,,,-99.99,,2014-03-04 12:30:00,
2014-03-04 08:11:00,1.0,-99.9,-100.00,NE,54,3.0,-999.0,-999,-99.99,,,-99.99,,2014-03-04 13:11:00,
2014-03-04 08:22:00,1.0,-99.9,-100.00,NE,54,3.0,-999.0,-999,-99.99,,,-99.99,,2014-03-04 13:22:00,
2014-03-04 09:12:00,2.0,-99.9,-100.00,ENE,66,2.0,-999.0,-999,-99.99,,,-99.99,,2014-03-04 14:12:00,
2014-03-04 09:30:00,9.0,-99.9,-100.00,NNW,345,2.0,-999.0,-999,-99.99,,,-99.99,,2014-03-04 14:30:00,
2014-03-04 10:12:00,9.0,-99.9,-100.00,NNW,345,2.0,-999.0,-999,-99.99,,,-99.99,,2014-03-04 15:12:00,
2014-03-04 10:22:00,9.0,-99.9,-100.00,NNW,345,2.0,-999.0,-999,-99.99,,,-99.99,,2014-03-04 15:22:00,
2014-03-04 11:19:00,12.0,-99.9,-100.00,NW,315,3.0,-999.0,-999,-99.99,,,-99.99,,2014-03-04 16:19:00,
2014-03-04 11:30:00,15.0,-99.9,-100.00,WNW,284,1.0,-999.0,-999,-99.99,,,-99.99,,2014-03-04 16:30:00,
2014-03-04 12:12:00,15.0,-99.9,-100.00,WNW,284,1.0,-999.0,-999,-99.99,,,-99.99,,2014-03-04 17:12:00,
2014-03-04 12:28:00,15.0,-99.9,-100.00,WNW,284,1.0,-999.0,-999,-99.99,,,-99.99,,2014-03-04 17:28:00,
2014-03-04 12:30:00,17.0,-99.9,-100.00,WSW,256,2.0,-999.0,-999,-99.99,,,-99.99,,2014-03-04 17:30:00,
2014-03-04 13:13:00,17.0,-99.9,-100.00,WSW,256,2.0,-999.0,-999,-99.99,,,-99.99,,2014-03-04 18:13:00,
2014-03-04 13:22:00,17.0,-99.9,-100.00,WSW,256,2.0,-999.0,-999,-99.99,,,-99.99,,2014-03-04 18:22:00,
2014-03-04 13:30:00,21.0,-99.9,-100.00,SSW,196,1.0,-999.0,-999,-99.99,,,-99.99,,2014-03-04 18:30:00,
2014-03-04 13:52:00,21.0,-99.9,-100.00,SSW,196,1.0,-999.0,-999,-99.99,,,-99.99,,2014-03-04 18:52:00,
2014-03-04 14:02:00,21.0,-99.9,-100.00,SSW,196,1.0,-999.0,-999,-99.99,,,-99.99,,2014-03-04 19:02:00,
2014-03-04 14:11:00,21.0,-99.9,-100.00,SSW,196,1.0,-999.0,-999,-99.99,,,-99.99,,2014-03-04 19:11:00,
2014-03-04 14:22:00,21.0,-99.9,-100.00,SSW,196,1.0,-999.0,-999,-99.99,,,-99.99,,2014-03-04 19:22:00,
2014-03-04 14:30:00,25.0,-99.9,-100.00,West,264,1.0,-999.0,-999,-99.99,,,-99.99,,2014-03-04 19:30:00,
2014-03-04 15:12:00,25.0,-99.9,-100.00,West,264,1.0,-999.0,-999,-99.99,,,-99.99,,2014-03-04 20:12:00,
2014-03-04 15:22:00,25.0,-99.9,-100.00,West,264,1.0,-999.0,-999,-99.99,,,-99.99,,2014-03-04 20:22:00,
2014-03-04 15:30:00,24.0,-99.9,-100.00,South,173,6.0,-999.0,-999,-99.99,,,-99.99,,2014-03-04 20:30:00,
2014-03-04 16:11:00,24.0,-99.9,-100.00,South,173,6.0,-999.0,-999,-99.99,,,-99.99,,2014-03-04 21:11:00,
2014-03-04 16:22:00,24.0,-99.9,-100.00,South,173,6.0,-999.0,-999,-99.99,,,-99.99,,2014-03-04 21:22:00,
2014-03-04 16:30:00,25.0,-99.9,-100.00,South,189,6.0,-999.0,-999,-99.99,,,-99.99,,2014-03-04 21:30:00,
2014-03-04 17:13:00,25.0,-99.9,-100.00,South,189,6.0,-999.0,-999,-99.99,,,-99.99,,2014-03-04 22:13:00,
2014-03-04 17:23:00,25.0,-99.9,-100.00,South,189,6.0,-999.0,-999,-99.99,,,-99.99,,2014-03-04 22:23:00,
2014-03-04 17:30:00,26.0,-99.9,-100.00,South,187,4.0,-999.0,-999,-99.99,,,-99.99,,2014-03-04 22:30:00,
2014-03-04 17:53:00,26.0,-99.9,-100.00,South,187,4.0,-999.0,-999,-99.99,,,-99.99,,2014-03-04 22:53:00,
2014-03-04 18:03:00,26.0,-99.9,-100.00,South,187,4.0,-999.0,-999,-99.99,,,-99.99,,2014-03-04 23:03:00,
2014-03-04 18:13:00,26.0,-99.9,-100.00,South,187,4.0,-999.0,-999,-99.99,,,-99.99,,2014-03-04 23:13:00,
2014-03-04 18:22:00,26.0,-99.9,-100.00,South,187,4.0,-999.0,-999,-99.99,,,-99.99,,2014-03-04 23:22:00,
2014-03-04 18:30:00,26.0,-99.9,-100.00,SSW,199,4.0,-999.0,-999,-99.99,,,-99.99,,2014-03-04 23:30:00,
2014-03-04 19:12:00,26.0,-99.9,-100.00,SSW,199,4.0,-999.0,-999,-99.99,,,-99.99,,2014-03-05 00:12:00,
2014-03-04 19:22:00,26.0,-99.9,-100.00,SSW,199,4.0,-999.0,-999,-99.99,,,-99.99,,2014-03-05 00:22:00,
2014-03-04 19:30:00,26.0,-99.9,-100.00,WSW,245,1.0,-999.0,-999,-99.99,,,-99.99,,2014-03-05 00:30:00,
2014-03-04 20:11:00,26.0,-99.9,-100.00,WSW,245,1.0,-999.0,-999,-99.99,,,-99.99,,2014-03-05 01:11:00,
2014-03-04 20:22:00,26.0,-99.9,-100.00,WSW,245,1.0,-999.0,-999,-99.99,,,-99.99,,2014-03-05 01:22:00,
2014-03-04 20:30:00,25.0,-99.9,-100.00,ENE,72,1.0,-999.0,-999,-99.99,,,-99.99,,2014-03-05 01:30:00,
2014-03-04 21:12:00,25.0,-99.9,-100.00,ENE,72,1.0,-999.0,-999,-99.99,,,-99.99,,2014-03-05 02:12:00,
2014-03-04 21:22:00,25.0,-99.9,-100.00,ENE,72,1.0,-999.0,-999,-99.99,,,-99.99,,2014-03-05 02:22:00,
2014-03-04 21:30:00,24.0,-99.9,-100.00,North,351,1.0,-999.0,-999,-99.99,,,-99.99,,2014-03-05 02:30:00,
2014-03-04 22:12:00,24.0,-99.9,-100.00,North,351,1.0,-999.0,-999,-99.99,,,-99.99,,2014-03-05 03:12:00,
2014-03-04 22:22:00,24.0,-99.9,-100.00,North,351,1.0,-999.0,-999,-99.99,,,-99.99,,2014-03-05 03:22:00,
2014-03-04 22:30:00,23.0,-99.9,-100.00,North,353,2.0,-999.0,-999,-99.99,,,-99.99,,2014-03-05 03:30:00,
2014-03-04 23:13:00,23.0,-99.9,-100.00,North,353,2.0,-999.0,-999,-99.99,,,-99.99,,2014-03-05 04:13:00,
2014-03-04 23:23:00,23.0,-99.9,-100.00,North,353,2.0,-999.0,-999,-99.99,,,-99.99,,2014-03-05 04:23:00,
2014-03-04 23:30:00,22.0,-99.9,-100.00,North,353,2.0,-999.0,-999,-99.99,,,-99.99,,2014-03-05 04:30:00,